User: anonymous   Login
Location: Poughquag
(41.6090°N, 73.6820°W)
Time: 11:36:20
(UTC-04:00)
Language:

STARLINK-1346 - Orbit

View from above orbital plane
View from above orbital plane
View from above satellite
View from above satellite

Ground track
Ground track

The orbit data is extracted from the following two-line orbital elements,

1 45560U 20025AF  20221.50001157 -.00596224  00000-0 -14706-1 0  9994
2 45560  52.9988 232.8260 0005273 329.6893 314.1825 15.42287056 17544
Epoch (UTC): 08 August 2020 12:00:01
Eccentricity: 0.0005273
inclination: 52.9988°
perigee height: 436 km
apogee height: 443 km
right ascension of ascending node: 232.8260°
argument of perigee: 329.6893°
revolutions per day: 15.42287056
mean anomaly at epoch: 314.1825°
orbit number at epoch: 1754

The dashed part of the orbit path shows where the satellite is in the earth's shadow,  

DLR